THY5NU LTFM-EKCH

Flight info

Callsign THY5NU
Flight time 2h 52m
Altitude 34000
Route IBLAX P727 BGS L622 GONGO DCT KOMAN DCT KARIL DCT KENIN DCT LENOV DCT AMROR DCT ROE M743 TIDVU
Aircraft A321/M-SDE3FGHIRWY/LB1

Departure

Time 2026-04-24 12:14
Airport İstanbul Airport (LTFM)

Arrival

Time 2026-04-24 15:06
Airport Copenhagen Kastrup Airport (EKCH)
Time Latitude Longitude Altitude Speed Heading
2026-04-24 11:25 41.26360 28.74574 334 ft 0 kts 179°
2026-04-24 11:56 41.26379 28.74573 331 ft 4 kts 179°
2026-04-24 11:57 41.26406 28.74573 334 ft 4 kts 180°
2026-04-24 11:57 41.26433 28.74574 331 ft 4 kts 186°
2026-04-24 11:57 41.26453 28.74578 332 ft 0 kts 197°
2026-04-24 12:01 41.26448 28.74575 334 ft 2 kts 202°
2026-04-24 12:01 41.26424 28.74545 330 ft 7 kts 243°
2026-04-24 12:02 41.26439 28.74487 330 ft 7 kts 328°
2026-04-24 12:02 41.26500 28.74474 329 ft 11 kts 358°
2026-04-24 12:02 41.26579 28.74471 332 ft 11 kts 358°
2026-04-24 12:02 41.26660 28.74469 334 ft 12 kts
2026-04-24 12:03 41.26745 28.74469 332 ft 12 kts 359°
2026-04-24 12:03 41.26831 28.74467 329 ft 13 kts 359°
2026-04-24 12:03 41.26918 28.74464 331 ft 11 kts 359°
2026-04-24 12:03 41.26970 28.74520 334 ft 11 kts 79°
2026-04-24 12:04 41.26974 28.74629 333 ft 13 kts 89°
2026-04-24 12:04 41.26975 28.74755 334 ft 14 kts 89°
2026-04-24 12:04 41.26976 28.74839 333 ft 14 kts 89°
2026-04-24 12:04 41.26978 28.74988 334 ft 12 kts 89°
2026-04-24 12:05 41.26979 28.75057 333 ft 9 kts 89°
2026-04-24 12:05 41.26979 28.75080 333 ft 0 kts 89°
2026-04-24 12:08 41.26980 28.75108 332 ft 8 kts 89°
2026-04-24 12:08 41.26981 28.75201 334 ft 10 kts 89°
2026-04-24 12:08 41.26983 28.75293 330 ft 10 kts 89°
2026-04-24 12:08 41.27011 28.75367 333 ft 10 kts 24°
2026-04-24 12:09 41.27082 28.75372 333 ft 11 kts 359°
2026-04-24 12:09 41.27177 28.75370 334 ft 17 kts 359°
2026-04-24 12:09 41.27312 28.75367 332 ft 22 kts 359°
2026-04-24 12:09 41.27463 28.75363 333 ft 22 kts 359°
2026-04-24 12:10 41.27611 28.75360 331 ft 22 kts 359°
2026-04-24 12:10 41.27762 28.75356 331 ft 22 kts 359°
2026-04-24 12:10 41.27913 28.75352 334 ft 22 kts 359°
2026-04-24 12:11 41.28213 28.75346 331 ft 22 kts 359°
2026-04-24 12:11 41.28362 28.75342 333 ft 22 kts 359°
2026-04-24 12:11 41.28512 28.75338 333 ft 21 kts 359°
2026-04-24 12:11 41.28661 28.75335 330 ft 21 kts 359°
2026-04-24 12:12 41.28769 28.75333 334 ft 10 kts
2026-04-24 12:12 41.28816 28.75426 330 ft 10 kts 86°
2026-04-24 12:12 41.28817 28.75489 331 ft 11 kts 88°
2026-04-24 12:12 41.28819 28.75587 333 ft 9 kts 92°
2026-04-24 12:13 41.28777 28.75618 331 ft 7 kts 178°
2026-04-24 12:13 41.28775 28.75618 334 ft 0 kts 178°
2026-04-24 12:13 41.28574 28.75623 334 ft 65 kts 179°
2026-04-24 12:13 41.27909 28.75635 331 ft 127 kts 179°
2026-04-24 12:14 41.26863 28.75657 471 ft 163 kts 180°
2026-04-24 12:14 41.25742 28.75699 1240 ft 161 kts 176°
2026-04-24 12:14 41.24689 28.76344 1636 ft 181 kts 141°
2026-04-24 12:14 41.23672 28.77490 1778 ft 203 kts 145°
2026-04-24 12:15 41.22465 28.78641 1910 ft 225 kts 148°
2026-04-24 12:15 41.21090 28.79873 2105 ft 250 kts 148°
2026-04-24 12:15 41.19616 28.81186 2656 ft 259 kts 143°
2026-04-24 12:15 41.18503 28.83068 3242 ft 266 kts 109°
2026-04-24 12:16 41.18273 28.85501 3853 ft 269 kts 89°
2026-04-24 12:16 41.18302 28.88003 4531 ft 271 kts 88°
2026-04-24 12:16 41.18465 28.90500 5207 ft 273 kts 73°
2026-04-24 12:16 41.19346 28.92682 5819 ft 274 kts 45°
2026-04-24 12:17 41.20927 28.94113 6432 ft 273 kts 18°
2026-04-24 12:17 41.22773 28.94460 7037 ft 274 kts 358°
2026-04-24 12:17 41.24691 28.94432 7669 ft 276 kts 358°
2026-04-24 12:17 41.26624 28.94387 8295 ft 279 kts 358°
2026-04-24 12:18 41.28578 28.94339 8908 ft 281 kts 356°
2026-04-24 12:18 41.30513 28.93911 9490 ft 283 kts 341°
2026-04-24 12:18 41.32307 28.92819 10080 ft 285 kts 326°
2026-04-24 12:18 41.33972 28.91249 10330 ft 302 kts 323°
2026-04-24 12:19 41.35733 28.89552 10465 ft 323 kts 323°
2026-04-24 12:19 41.37605 28.87746 10598 ft 342 kts 323°
2026-04-24 12:19 41.39563 28.85859 10981 ft 350 kts 323°
2026-04-24 12:19 41.41546 28.83950 11542 ft 354 kts 323°
2026-04-24 12:20 41.43519 28.82047 12122 ft 356 kts 323°
2026-04-24 12:20 41.45563 28.80073 12702 ft 359 kts 323°
2026-04-24 12:20 41.47593 28.78110 13274 ft 361 kts 323°
2026-04-24 12:20 41.49602 28.76166 13822 ft 363 kts 323°
2026-04-24 12:21 41.51661 28.74177 14386 ft 366 kts 323°
2026-04-24 12:21 41.53731 28.72173 14939 ft 368 kts 323°
2026-04-24 12:21 41.55816 28.70148 15496 ft 370 kts 323°
2026-04-24 12:21 41.57903 28.68118 16020 ft 372 kts 323°
2026-04-24 12:22 41.60012 28.66064 16539 ft 375 kts 323°
2026-04-24 12:22 41.62100 28.64033 17045 ft 377 kts 323°
2026-04-24 12:22 41.64253 28.61940 17543 ft 379 kts 323°
2026-04-24 12:22 41.66369 28.59882 18004 ft 382 kts 323°
2026-04-24 12:23 41.68522 28.57785 18492 ft 384 kts 323°
2026-04-24 12:23 41.70689 28.55674 18952 ft 386 kts 323°
2026-04-24 12:23 41.72864 28.53553 19432 ft 388 kts 323°
2026-04-24 12:23 41.75060 28.51409 19909 ft 390 kts 323°
2026-04-24 12:24 41.77259 28.49260 20342 ft 392 kts 323°
2026-04-24 12:24 41.79470 28.47099 20744 ft 394 kts 323°
2026-04-24 12:24 41.81694 28.44921 21136 ft 397 kts 324°
2026-04-24 12:24 41.83934 28.42724 21546 ft 399 kts 324°
2026-04-24 12:25 41.86145 28.40554 21933 ft 400 kts 324°
2026-04-24 12:25 41.88409 28.38329 22305 ft 402 kts 324°
2026-04-24 12:25 41.90671 28.36102 22680 ft 404 kts 324°
2026-04-24 12:25 41.92949 28.33858 23017 ft 406 kts 324°
2026-04-24 12:26 41.95235 28.31608 23369 ft 408 kts 324°
2026-04-24 12:26 41.97464 28.29237 23693 ft 410 kts 318°
2026-04-24 12:26 41.99396 28.26388 24008 ft 414 kts 308°
2026-04-24 12:26 42.01009 28.23231 24340 ft 416 kts 306°
2026-04-24 12:27 42.02632 28.19999 24659 ft 418 kts 306°
2026-04-24 12:27 42.04271 28.16754 24973 ft 419 kts 306°
2026-04-24 12:27 42.05921 28.13501 25265 ft 421 kts 306°
2026-04-24 12:27 42.07578 28.10231 25571 ft 423 kts 306°
2026-04-24 12:28 42.09236 28.06952 25856 ft 425 kts 307°
2026-04-24 12:28 42.10900 28.03650 26151 ft 427 kts 307°
2026-04-24 12:28 42.12568 28.00333 26430 ft 429 kts 307°
2026-04-24 12:28 42.14241 27.96991 26703 ft 431 kts 307°
2026-04-24 12:29 42.15918 27.93631 26969 ft 432 kts 307°
2026-04-24 12:29 42.17599 27.90254 27218 ft 434 kts 307°
2026-04-24 12:29 42.19285 27.86863 27460 ft 436 kts 307°
2026-04-24 12:29 42.21049 27.83529 27723 ft 435 kts 313°
2026-04-24 12:30 42.23143 27.80610 27969 ft 433 kts 322°
2026-04-24 12:30 42.25563 27.78189 28223 ft 432 kts 331°
2026-04-24 12:30 42.28192 27.76235 28484 ft 432 kts 334°
2026-04-24 12:30 42.30810 27.74337 28746 ft 433 kts 334°
2026-04-24 12:31 42.33492 27.72375 29105 ft 432 kts 334°
2026-04-24 12:31 42.36086 27.70465 29466 ft 430 kts 334°
2026-04-24 12:31 42.38711 27.68531 29831 ft 428 kts 334°
2026-04-24 12:31 42.41325 27.66606 30180 ft 427 kts 334°
2026-04-24 12:32 42.43933 27.64686 30533 ft 425 kts 334°
2026-04-24 12:32 42.46536 27.62772 30863 ft 424 kts 334°
2026-04-24 12:32 42.49124 27.60871 31190 ft 422 kts 334°
2026-04-24 12:32 42.51678 27.58994 31486 ft 422 kts 334°
2026-04-24 12:33 42.54257 27.57095 31782 ft 421 kts 334°
2026-04-24 12:33 42.56824 27.55203 32083 ft 419 kts 334°
2026-04-24 12:33 42.59343 27.53191 32335 ft 422 kts 328°
2026-04-24 12:33 42.61730 27.50849 32590 ft 422 kts 327°
2026-04-24 12:34 42.64108 27.48510 32840 ft 421 kts 328°
2026-04-24 12:34 42.66485 27.46180 33088 ft 421 kts 328°
2026-04-24 12:34 42.68857 27.43853 33338 ft 420 kts 328°
2026-04-24 12:34 42.71222 27.41527 33588 ft 419 kts 328°
2026-04-24 12:35 42.72777 27.39995 33740 ft 419 kts 328°
2026-04-24 12:35 42.75953 27.36865 33935 ft 422 kts 328°
2026-04-24 12:35 42.78342 27.34510 33955 ft 426 kts 328°
2026-04-24 12:36 42.83144 27.29772 33935 ft 431 kts 328°
2026-04-24 12:36 42.88008 27.24952 33934 ft 432 kts 328°
2026-04-24 12:37 42.92861 27.20133 33934 ft 431 kts 328°
2026-04-24 12:37 42.97714 27.15317 33935 ft 430 kts 328°
2026-04-24 12:38 43.02563 27.10501 33948 ft 430 kts 328°
2026-04-24 12:38 43.07402 27.05664 33953 ft 431 kts 328°
2026-04-24 12:39 43.17219 26.96393 33959 ft 428 kts 332°
2026-04-24 12:40 43.22230 26.91978 33958 ft 428 kts 332°
2026-04-24 12:40 43.27204 26.87490 33967 ft 428 kts 331°
2026-04-24 12:41 43.32151 26.82954 33968 ft 428 kts 331°
2026-04-24 12:41 43.37103 26.78411 33965 ft 427 kts 331°
2026-04-24 12:42 43.42052 26.73882 33971 ft 427 kts 331°
2026-04-24 12:42 43.46954 26.69392 33968 ft 426 kts 331°
2026-04-24 12:43 43.51896 26.64846 33966 ft 425 kts 331°
2026-04-24 12:43 43.56807 26.60310 33966 ft 425 kts 331°
2026-04-24 12:44 43.61686 26.55805 33966 ft 424 kts 331°
2026-04-24 12:44 43.66594 26.51262 33964 ft 423 kts 331°
2026-04-24 12:45 43.71480 26.46734 33965 ft 423 kts 332°
2026-04-24 12:45 43.76362 26.42194 33959 ft 422 kts 332°
2026-04-24 12:46 43.81205 26.37691 33961 ft 422 kts 332°
2026-04-24 12:46 43.86065 26.33153 33962 ft 421 kts 332°
2026-04-24 12:47 43.90930 26.28608 33958 ft 420 kts 332°
2026-04-24 12:47 43.95785 26.24060 33952 ft 420 kts 332°
2026-04-24 12:48 44.00606 26.19562 33943 ft 419 kts 332°
2026-04-24 12:48 44.05479 26.15115 33949 ft 418 kts 333°
2026-04-24 12:49 44.10359 26.10683 33941 ft 418 kts 333°
2026-04-24 12:49 44.15232 26.06235 33951 ft 418 kts 332°
2026-04-24 12:50 44.20089 26.01772 33949 ft 418 kts 332°
2026-04-24 12:50 44.24939 25.97307 33939 ft 418 kts 332°
2026-04-24 12:51 44.29766 25.92854 33939 ft 418 kts 332°
2026-04-24 12:51 44.34617 25.88366 33948 ft 418 kts 332°
2026-04-24 12:52 44.39484 25.83870 33940 ft 419 kts 332°
2026-04-24 12:52 44.44337 25.79371 33948 ft 419 kts 332°
2026-04-24 12:53 44.48371 25.75624 33950 ft 418 kts 332°
2026-04-24 12:53 44.53225 25.71108 33943 ft 418 kts 332°
2026-04-24 12:54 44.58072 25.66594 33946 ft 418 kts 332°
2026-04-24 12:54 44.62923 25.62054 33951 ft 418 kts 332°
2026-04-24 12:55 44.67761 25.57510 33945 ft 418 kts 332°
2026-04-24 12:55 44.72573 25.52987 33948 ft 418 kts 332°
2026-04-24 12:56 44.77413 25.48439 33958 ft 417 kts 332°
2026-04-24 12:56 44.82231 25.43905 33959 ft 417 kts 332°
2026-04-24 12:57 44.87068 25.39345 33966 ft 417 kts 332°
2026-04-24 12:57 44.91858 25.34805 33966 ft 417 kts 332°
2026-04-24 12:58 44.96668 25.30246 33975 ft 417 kts 332°
2026-04-24 12:58 45.01484 25.25667 33972 ft 417 kts 332°
2026-04-24 12:59 45.06304 25.21072 33974 ft 417 kts 332°
2026-04-24 12:59 45.11080 25.16510 33976 ft 416 kts 332°
2026-04-24 13:00 45.15881 25.11927 33981 ft 416 kts 332°
2026-04-24 13:00 45.20693 25.07326 33982 ft 416 kts 331°
2026-04-24 13:01 45.25500 25.02707 33983 ft 417 kts 331°
2026-04-24 13:01 45.30266 24.98119 33980 ft 416 kts 331°
2026-04-24 13:02 45.35063 24.93498 33983 ft 417 kts 331°
2026-04-24 13:02 45.39872 24.88855 33986 ft 417 kts 331°
2026-04-24 13:03 45.44669 24.84206 33986 ft 417 kts 331°
2026-04-24 13:03 45.49449 24.79559 33989 ft 417 kts 331°
2026-04-24 13:04 45.54254 24.74886 33992 ft 418 kts 331°
2026-04-24 13:04 45.59064 24.70205 33990 ft 418 kts 331°
2026-04-24 13:05 45.63875 24.65515 33990 ft 419 kts 331°
2026-04-24 13:05 45.68673 24.60828 33991 ft 419 kts 331°
2026-04-24 13:06 45.73498 24.56099 33992 ft 419 kts 330°
2026-04-24 13:06 45.78313 24.51360 33992 ft 420 kts 330°
2026-04-24 13:07 45.83102 24.46635 33993 ft 420 kts 330°
2026-04-24 13:07 45.87924 24.41883 33992 ft 420 kts 330°
2026-04-24 13:08 45.92746 24.37134 33997 ft 421 kts 330°
2026-04-24 13:08 45.97575 24.32349 34002 ft 421 kts 330°
2026-04-24 13:09 46.04810 24.25141 34004 ft 421 kts 330°
2026-04-24 13:09 46.09613 24.20349 34001 ft 421 kts 330°
2026-04-24 13:10 46.14400 24.15574 34001 ft 421 kts 330°
2026-04-24 13:10 46.19222 24.10760 34001 ft 421 kts 330°
2026-04-24 13:11 46.24043 24.05921 34004 ft 422 kts 330°
2026-04-24 13:11 46.28862 24.01083 34011 ft 421 kts 330°
2026-04-24 13:12 46.33677 23.96238 34012 ft 421 kts 330°
2026-04-24 13:12 46.38496 23.91371 34016 ft 421 kts 330°
2026-04-24 13:13 46.43273 23.86542 34015 ft 422 kts 330°
2026-04-24 13:13 46.48092 23.81657 34015 ft 422 kts 330°
2026-04-24 13:14 46.52897 23.76764 34021 ft 422 kts 330°
2026-04-24 13:14 46.57703 23.71866 34019 ft 422 kts 330°
2026-04-24 13:15 46.62508 23.66962 34020 ft 422 kts 330°
2026-04-24 13:15 46.67316 23.62049 34018 ft 422 kts 329°
2026-04-24 13:16 46.72117 23.57135 34020 ft 421 kts 329°
2026-04-24 13:16 46.76886 23.52246 34019 ft 421 kts 329°
2026-04-24 13:17 46.81676 23.47320 34025 ft 421 kts 329°
2026-04-24 13:17 46.86469 23.42377 34027 ft 421 kts 329°
2026-04-24 13:18 46.91256 23.37418 34026 ft 421 kts 329°
2026-04-24 13:18 46.96045 23.32447 34022 ft 422 kts 329°
2026-04-24 13:19 47.00829 23.27475 34018 ft 422 kts 329°
2026-04-24 13:19 47.05588 23.22519 34022 ft 422 kts 329°
2026-04-24 13:20 47.10365 23.17522 34020 ft 422 kts 329°
2026-04-24 13:20 47.15154 23.12517 34025 ft 422 kts 329°
2026-04-24 13:21 47.19924 23.07522 34038 ft 421 kts 329°
2026-04-24 13:21 47.24705 23.02500 34038 ft 421 kts 329°
2026-04-24 13:22 47.29473 22.97480 34037 ft 421 kts 329°
2026-04-24 13:22 47.34234 22.92458 34027 ft 421 kts 328°
2026-04-24 13:23 47.39004 22.87415 34029 ft 421 kts 328°
2026-04-24 13:23 47.43765 22.82364 34024 ft 421 kts 328°
2026-04-24 13:24 47.48498 22.77333 34030 ft 421 kts 328°
2026-04-24 13:24 47.53258 22.72263 34032 ft 421 kts 328°
2026-04-24 13:25 47.58023 22.67182 34019 ft 422 kts 328°
2026-04-24 13:25 47.62788 22.62091 34027 ft 422 kts 328°
2026-04-24 13:26 47.67549 22.56979 34022 ft 422 kts 328°
2026-04-24 13:26 47.72304 22.51856 34023 ft 422 kts 328°
2026-04-24 13:27 47.77034 22.46759 34028 ft 422 kts 328°
2026-04-24 13:27 47.81881 22.41745 34030 ft 420 kts 331°
2026-04-24 13:28 47.86862 22.37305 34025 ft 420 kts 334°
2026-04-24 13:28 47.91928 22.32953 34015 ft 420 kts 333°
2026-04-24 13:29 47.96956 22.28495 34025 ft 421 kts 332°
2026-04-24 13:29 48.01954 22.23945 34021 ft 421 kts 332°
2026-04-24 13:30 48.06953 22.19390 34021 ft 421 kts 332°
2026-04-24 13:30 48.11959 22.14841 34023 ft 421 kts 332°
2026-04-24 13:31 48.16972 22.10285 34027 ft 421 kts 332°
2026-04-24 13:31 48.21946 22.05751 34028 ft 421 kts 332°
2026-04-24 13:32 48.26956 22.01180 34024 ft 421 kts 332°
2026-04-24 13:32 48.31947 21.96598 34023 ft 421 kts 332°
2026-04-24 13:33 48.36945 21.91995 34017 ft 421 kts 332°
2026-04-24 13:33 48.41939 21.87407 34021 ft 420 kts 332°
2026-04-24 13:34 48.46933 21.82819 34016 ft 420 kts 332°
2026-04-24 13:34 48.51885 21.78243 34025 ft 420 kts 332°
2026-04-24 13:35 48.56865 21.73617 34017 ft 420 kts 332°
2026-04-24 13:35 48.61840 21.68980 34014 ft 420 kts 332°
2026-04-24 13:36 48.66815 21.64348 34020 ft 420 kts 332°
2026-04-24 13:36 48.71783 21.59715 34025 ft 420 kts 332°
2026-04-24 13:37 48.76747 21.55066 34023 ft 419 kts 332°
2026-04-24 13:37 48.81712 21.50406 34020 ft 419 kts 332°
2026-04-24 13:38 48.86638 21.45792 34028 ft 419 kts 331°
2026-04-24 13:38 48.91586 21.41131 34025 ft 418 kts 331°
2026-04-24 13:39 48.96529 21.36449 34024 ft 418 kts 331°
2026-04-24 13:39 49.01467 21.31766 34028 ft 418 kts 331°
2026-04-24 13:40 49.05574 21.27876 34020 ft 418 kts 331°
2026-04-24 13:40 49.10511 21.23184 34019 ft 418 kts 331°
2026-04-24 13:41 49.15442 21.18484 34031 ft 417 kts 331°
2026-04-24 13:41 49.20367 21.13767 34029 ft 417 kts 331°
2026-04-24 13:42 49.25289 21.09057 34024 ft 417 kts 331°
2026-04-24 13:42 49.30215 21.04337 34027 ft 417 kts 331°
2026-04-24 13:43 49.35100 20.99657 34029 ft 416 kts 331°
2026-04-24 13:43 49.40057 20.95076 34033 ft 416 kts 332°
2026-04-24 13:44 49.45034 20.90536 34027 ft 416 kts 332°
2026-04-24 13:44 49.50002 20.85967 34028 ft 416 kts 332°
2026-04-24 13:45 49.54979 20.81362 34029 ft 416 kts 332°
2026-04-24 13:45 49.59905 20.76785 34028 ft 416 kts 332°
2026-04-24 13:46 49.64865 20.72162 34032 ft 416 kts 331°
2026-04-24 13:46 49.69830 20.67534 34033 ft 416 kts 331°
2026-04-24 13:47 49.74789 20.62902 34029 ft 417 kts 331°
2026-04-24 13:47 49.79743 20.58256 34044 ft 416 kts 331°
2026-04-24 13:48 49.84700 20.53598 34045 ft 416 kts 331°
2026-04-24 13:48 49.89658 20.48938 34046 ft 416 kts 331°
2026-04-24 13:49 49.94602 20.44277 34038 ft 416 kts 331°
2026-04-24 13:49 49.99512 20.39621 34044 ft 416 kts 330°
2026-04-24 13:50 50.04456 20.34925 34046 ft 416 kts 330°
2026-04-24 13:50 50.09385 20.30230 34045 ft 416 kts 330°
2026-04-24 13:51 50.14317 20.25538 34045 ft 415 kts 330°
2026-04-24 13:51 50.19252 20.20829 34043 ft 415 kts 330°
2026-04-24 13:52 50.24171 20.16115 34046 ft 415 kts 330°
2026-04-24 13:52 50.29067 20.11409 34047 ft 415 kts 330°
2026-04-24 13:53 50.34000 20.06654 34045 ft 415 kts 330°
2026-04-24 13:53 50.38920 20.01903 34046 ft 415 kts 330°
2026-04-24 13:54 50.43837 19.97142 34041 ft 416 kts 330°
2026-04-24 13:54 50.48765 19.92365 34039 ft 416 kts 330°
2026-04-24 13:55 50.53694 19.87584 34044 ft 416 kts 330°
2026-04-24 13:55 50.58621 19.82782 34036 ft 416 kts 330°
2026-04-24 13:56 50.63535 19.77981 34034 ft 416 kts 329°
2026-04-24 13:56 50.68456 19.73164 34046 ft 416 kts 329°
2026-04-24 13:57 50.73375 19.68336 34045 ft 417 kts 329°
2026-04-24 13:57 50.78301 19.63496 34045 ft 417 kts 329°
2026-04-24 13:58 50.83189 19.58665 34039 ft 417 kts 329°
2026-04-24 13:58 50.88102 19.53795 34041 ft 417 kts 329°
2026-04-24 13:59 50.93014 19.48918 34039 ft 416 kts 329°
2026-04-24 13:59 50.97926 19.44034 34046 ft 417 kts 329°
2026-04-24 14:00 51.02845 19.39134 34029 ft 417 kts 329°
2026-04-24 14:00 51.07753 19.34234 34038 ft 417 kts 329°
2026-04-24 14:01 51.12659 19.29332 34037 ft 416 kts 329°
2026-04-24 14:01 51.17557 19.24403 34038 ft 416 kts 328°
2026-04-24 14:02 51.22422 19.19502 34029 ft 416 kts 328°
2026-04-24 14:02 51.27308 19.14576 34033 ft 416 kts 328°
2026-04-24 14:03 51.32194 19.09627 34023 ft 415 kts 328°
2026-04-24 14:03 51.37074 19.04675 34026 ft 415 kts 328°
2026-04-24 14:04 51.41961 18.99699 34020 ft 416 kts 328°
2026-04-24 14:04 51.46820 18.94749 34024 ft 416 kts 328°
2026-04-24 14:05 51.51698 18.89758 34027 ft 416 kts 328°
2026-04-24 14:05 51.56573 18.84753 34028 ft 416 kts 328°
2026-04-24 14:06 51.61454 18.79741 34027 ft 416 kts 328°
2026-04-24 14:06 51.66329 18.74715 34035 ft 416 kts 328°
2026-04-24 14:07 51.71198 18.69676 34027 ft 416 kts 328°
2026-04-24 14:07 51.76070 18.64621 34026 ft 416 kts 327°
2026-04-24 14:08 51.80938 18.59560 34033 ft 416 kts 327°
2026-04-24 14:08 51.85777 18.54527 34031 ft 416 kts 328°
2026-04-24 14:09 51.90644 18.49455 34030 ft 416 kts 327°
2026-04-24 14:09 51.95520 18.44361 34026 ft 416 kts 327°
2026-04-24 14:10 52.00385 18.39263 34022 ft 416 kts 327°
2026-04-24 14:10 52.05239 18.34148 34017 ft 415 kts 327°
2026-04-24 14:11 52.10082 18.29042 34031 ft 415 kts 327°
2026-04-24 14:12 52.17342 18.21369 34033 ft 415 kts 327°
2026-04-24 14:12 52.22179 18.16225 34027 ft 415 kts 327°
2026-04-24 14:13 52.27008 18.11074 34026 ft 415 kts 327°
2026-04-24 14:13 52.31805 18.05948 34030 ft 414 kts 327°
2026-04-24 14:14 52.36663 18.00750 34020 ft 414 kts 327°
2026-04-24 14:14 52.43865 17.93018 34023 ft 415 kts 327°
2026-04-24 14:15 52.48684 17.87831 34034 ft 415 kts 326°
2026-04-24 14:15 52.53503 17.82615 34045 ft 414 kts 326°
2026-04-24 14:16 52.58323 17.77391 34034 ft 415 kts 326°
2026-04-24 14:17 52.65550 17.69538 34026 ft 414 kts 326°
2026-04-24 14:17 52.72731 17.61700 34027 ft 414 kts 326°
2026-04-24 14:18 52.77527 17.56445 34032 ft 413 kts 326°
2026-04-24 14:18 52.82318 17.51182 34027 ft 413 kts 326°
2026-04-24 14:19 52.87103 17.45909 34021 ft 412 kts 325°
2026-04-24 14:19 52.91851 17.40673 34019 ft 412 kts 325°
2026-04-24 14:20 52.96629 17.35394 34020 ft 412 kts 325°
2026-04-24 14:20 53.01406 17.30097 34024 ft 412 kts 325°
2026-04-24 14:21 53.06171 17.24786 34015 ft 412 kts 325°
2026-04-24 14:21 53.10919 17.19496 34020 ft 412 kts 325°
2026-04-24 14:22 53.15676 17.14175 34018 ft 412 kts 324°
2026-04-24 14:23 53.22802 17.06167 34026 ft 412 kts 324°
2026-04-24 14:23 53.27527 17.00858 34022 ft 412 kts 324°
2026-04-24 14:24 53.32288 16.95479 34033 ft 412 kts 324°
2026-04-24 14:24 53.37026 16.90099 34034 ft 411 kts 324°
2026-04-24 14:25 53.40966 16.85623 34027 ft 411 kts 324°
2026-04-24 14:25 53.46476 16.79347 34032 ft 411 kts 324°
2026-04-24 14:26 53.51199 16.73950 34058 ft 410 kts 324°
2026-04-24 14:26 53.55916 16.68554 34068 ft 410 kts 324°
2026-04-24 14:27 53.60604 16.63163 34067 ft 410 kts 323°
2026-04-24 14:27 53.65319 16.57733 34069 ft 410 kts 323°
2026-04-24 14:28 53.70040 16.52286 34067 ft 410 kts 323°
2026-04-24 14:28 53.74742 16.46840 34067 ft 409 kts 323°
2026-04-24 14:29 53.78642 16.42298 34068 ft 409 kts 323°
2026-04-24 14:29 53.84102 16.35958 34068 ft 409 kts 323°
2026-04-24 14:30 53.88025 16.31390 34063 ft 409 kts 323°
2026-04-24 14:30 53.92616 16.26016 34025 ft 392 kts 323°
2026-04-24 14:31 53.97047 16.20813 34034 ft 387 kts 322°
2026-04-24 14:31 54.01475 16.15596 34031 ft 387 kts 322°
2026-04-24 14:32 54.05905 16.10366 34031 ft 387 kts 322°
2026-04-24 14:32 54.10324 16.05144 34037 ft 387 kts 322°
2026-04-24 14:33 54.14746 15.99906 34046 ft 387 kts 322°
2026-04-24 14:33 54.19174 15.94641 34049 ft 388 kts 322°
2026-04-24 14:34 54.23577 15.89394 34051 ft 388 kts 322°
2026-04-24 14:34 54.28005 15.84098 34051 ft 388 kts 322°
2026-04-24 14:35 54.32426 15.78801 34050 ft 388 kts 322°
2026-04-24 14:35 54.36857 15.73476 34053 ft 388 kts 322°
2026-04-24 14:36 54.41260 15.68175 34053 ft 389 kts 322°
2026-04-24 14:36 54.45688 15.62830 34052 ft 389 kts 322°
2026-04-24 14:37 54.50114 15.57472 34050 ft 390 kts 322°
2026-04-24 14:37 54.54546 15.52084 34050 ft 390 kts 322°
2026-04-24 14:38 54.58992 15.46659 34048 ft 390 kts 322°
2026-04-24 14:38 54.63404 15.41282 34049 ft 391 kts 322°
2026-04-24 14:38 54.65630 15.38555 33852 ft 393 kts 322°
2026-04-24 14:39 54.67845 15.35836 33606 ft 393 kts 322°
2026-04-24 14:39 54.70098 15.33071 33353 ft 395 kts 322°
2026-04-24 14:39 54.72340 15.30317 33102 ft 396 kts 322°
2026-04-24 14:39 54.74590 15.27548 32852 ft 397 kts 322°
2026-04-24 14:40 54.76848 15.24770 32599 ft 398 kts 322°
2026-04-24 14:40 54.79111 15.21982 32343 ft 399 kts 322°
2026-04-24 14:40 54.81364 15.19200 31952 ft 395 kts 322°
2026-04-24 14:40 54.83562 15.16480 31493 ft 391 kts 322°
2026-04-24 14:41 54.85768 15.13741 31031 ft 387 kts 322°
2026-04-24 14:41 54.87944 15.11029 30572 ft 382 kts 320°
2026-04-24 14:41 54.89919 15.07980 30065 ft 377 kts 311°
2026-04-24 14:41 54.91675 15.04604 29546 ft 374 kts 311°
2026-04-24 14:42 54.93413 15.01252 29042 ft 372 kts 311°
2026-04-24 14:42 54.95140 14.97924 28541 ft 369 kts 311°
2026-04-24 14:42 54.96834 14.94662 28045 ft 367 kts 311°
2026-04-24 14:42 54.98538 14.91387 27552 ft 364 kts 311°
2026-04-24 14:43 55.00233 14.88121 27060 ft 362 kts 311°
2026-04-24 14:43 55.01913 14.84871 26572 ft 360 kts 311°
2026-04-24 14:43 55.03590 14.81620 26093 ft 358 kts 311°
2026-04-24 14:43 55.05251 14.78404 25615 ft 357 kts 311°
2026-04-24 14:44 55.06775 14.74992 25156 ft 355 kts 302°
2026-04-24 14:44 55.07950 14.71225 24693 ft 354 kts 298°
2026-04-24 14:44 55.09070 14.67397 24242 ft 352 kts 298°
2026-04-24 14:44 55.10180 14.63590 23800 ft 350 kts 298°
2026-04-24 14:45 55.11280 14.59820 23367 ft 348 kts 298°
2026-04-24 14:45 55.12363 14.56116 22948 ft 345 kts 298°
2026-04-24 14:45 55.13451 14.52400 22518 ft 342 kts 298°
2026-04-24 14:45 55.14534 14.48700 22092 ft 340 kts 298°
2026-04-24 14:46 55.15603 14.45032 21669 ft 337 kts 298°
2026-04-24 14:46 55.16660 14.41394 21241 ft 334 kts 298°
2026-04-24 14:46 55.17712 14.37776 20793 ft 332 kts 298°
2026-04-24 14:46 55.18753 14.34188 20362 ft 329 kts 298°
2026-04-24 14:47 55.19784 14.30621 19923 ft 327 kts 298°
2026-04-24 14:47 55.20809 14.27073 19476 ft 325 kts 298°
2026-04-24 14:47 55.21829 14.23545 19015 ft 323 kts 298°
2026-04-24 14:47 55.22842 14.20039 18569 ft 321 kts 298°
2026-04-24 14:48 55.23832 14.16595 18120 ft 319 kts 298°
2026-04-24 14:48 55.24828 14.13125 17668 ft 317 kts 298°
2026-04-24 14:48 55.25818 14.09675 17214 ft 316 kts 298°
2026-04-24 14:48 55.26801 14.06253 16772 ft 314 kts 298°
2026-04-24 14:49 55.27786 14.02825 16314 ft 312 kts 298°
2026-04-24 14:49 55.28760 13.99427 15867 ft 311 kts 298°
2026-04-24 14:49 55.29728 13.96040 15430 ft 309 kts 298°
2026-04-24 14:49 55.30688 13.92668 14996 ft 308 kts 298°
2026-04-24 14:50 55.31642 13.89320 14557 ft 305 kts 298°
2026-04-24 14:50 55.32593 13.85979 14117 ft 304 kts 298°
2026-04-24 14:50 55.33525 13.82702 13694 ft 303 kts 298°
2026-04-24 14:50 55.34465 13.79400 13262 ft 302 kts 298°
2026-04-24 14:51 55.35400 13.76111 12834 ft 300 kts 298°
2026-04-24 14:51 55.36333 13.72823 12388 ft 300 kts 298°
2026-04-24 14:51 55.37260 13.69551 11966 ft 298 kts 297°
2026-04-24 14:51 55.38179 13.66285 11553 ft 297 kts 297°
2026-04-24 14:52 55.39091 13.63027 11138 ft 296 kts 297°
2026-04-24 14:52 55.39999 13.59783 10717 ft 294 kts 297°
2026-04-24 14:52 55.40885 13.56610 10385 ft 290 kts 296°
2026-04-24 14:52 55.41556 13.53321 10198 ft 282 kts 289°
2026-04-24 14:53 55.42122 13.50043 9941 ft 277 kts 289°
2026-04-24 14:53 55.42685 13.46816 9818 ft 276 kts 289°
2026-04-24 14:53 55.43244 13.43592 9690 ft 275 kts 289°
2026-04-24 14:53 55.43800 13.40359 9469 ft 275 kts 289°
2026-04-24 14:54 55.44351 13.37151 9114 ft 274 kts 289°
2026-04-24 14:54 55.44902 13.33951 8729 ft 272 kts 289°
2026-04-24 14:54 55.45429 13.30758 8360 ft 272 kts 284°
2026-04-24 14:54 55.45556 13.27430 7986 ft 275 kts 268°
2026-04-24 14:55 55.45317 13.25203 7850 ft 273 kts 256°
2026-04-24 14:55 55.44370 13.21073 7716 ft 274 kts 258°
2026-04-24 14:55 55.44119 13.17784 7601 ft 270 kts 270°
2026-04-24 14:55 55.44004 13.14482 7484 ft 270 kts 270°
2026-04-24 14:56 55.43893 13.11194 7358 ft 269 kts 270°
2026-04-24 14:56 55.43782 13.07899 7232 ft 268 kts 270°
2026-04-24 14:56 55.43676 13.04623 7115 ft 268 kts 270°
2026-04-24 14:56 55.43571 13.01339 7000 ft 267 kts 270°
2026-04-24 14:57 55.43462 12.98119 6875 ft 266 kts 270°
2026-04-24 14:57 55.43349 12.94859 6751 ft 266 kts 270°
2026-04-24 14:57 55.43238 12.91612 6610 ft 266 kts 270°
2026-04-24 14:57 55.43125 12.88372 6383 ft 264 kts 270°
2026-04-24 14:58 55.43012 12.85156 6129 ft 262 kts 270°
2026-04-24 14:58 55.42897 12.81962 5878 ft 261 kts 270°
2026-04-24 14:58 55.42783 12.78791 5631 ft 259 kts 270°
2026-04-24 14:58 55.42669 12.75631 5382 ft 259 kts 270°
2026-04-24 14:59 55.42558 12.72477 5156 ft 258 kts 270°
2026-04-24 14:59 55.42447 12.69339 4931 ft 257 kts 270°
2026-04-24 14:59 55.42335 12.66204 4705 ft 256 kts 270°
2026-04-24 14:59 55.42221 12.63089 4481 ft 255 kts 270°
2026-04-24 15:00 55.42107 12.59979 4252 ft 253 kts 269°
2026-04-24 15:00 55.41996 12.56967 4026 ft 247 kts 269°
2026-04-24 15:00 55.41893 12.53999 3778 ft 238 kts 273°
2026-04-24 15:00 55.42143 12.51215 3531 ft 225 kts 292°
2026-04-24 15:01 55.42868 12.48842 3285 ft 218 kts 309°
2026-04-24 15:01 55.43839 12.46893 3055 ft 209 kts 311°
2026-04-24 15:01 55.44786 12.44996 2794 ft 202 kts 311°
2026-04-24 15:01 55.45722 12.43207 2561 ft 195 kts 321°
2026-04-24 15:02 55.46942 12.42459 2417 ft 184 kts
2026-04-24 15:02 55.48086 12.43228 2311 ft 175 kts 36°
2026-04-24 15:02 55.48977 12.44603 2185 ft 166 kts 37°
2026-04-24 15:02 55.49835 12.45919 2090 ft 162 kts 37°
2026-04-24 15:03 55.50397 12.46779 2040 ft 162 kts 40°
2026-04-24 15:03 55.51595 12.48617 1993 ft 175 kts 43°
2026-04-24 15:03 55.52487 12.49984 1773 ft 164 kts 44°
2026-04-24 15:03 55.53330 12.51278 1561 ft 157 kts 46°
2026-04-24 15:04 55.54136 12.52516 1360 ft 150 kts 46°
2026-04-24 15:04 55.54910 12.53708 1161 ft 145 kts 45°
2026-04-24 15:04 55.55654 12.54862 988 ft 141 kts 38°
2026-04-24 15:04 55.56377 12.55972 784 ft 139 kts 38°
2026-04-24 15:05 55.57107 12.57093 623 ft 139 kts 38°
2026-04-24 15:05 55.57834 12.58218 391 ft 139 kts 38°
2026-04-24 15:05 55.58565 12.59342 231 ft 140 kts 38°
2026-04-24 15:05 55.59294 12.60466 51 ft 140 kts 39°
2026-04-24 15:06 55.59971 12.61522 19 ft 110 kts 40°
2026-04-24 15:06 55.60384 12.62155 17 ft 39 kts 40°
2026-04-24 15:06 55.60570 12.62318 20 ft 23 kts 17°
2026-04-24 15:06 55.60676 12.62359 18 ft 15 kts 12°
2026-04-24 15:07 55.60767 12.62398 17 ft 12 kts 19°
2026-04-24 15:07 55.60839 12.62478 17 ft 13 kts 41°
2026-04-24 15:07 55.60909 12.62587 17 ft 14 kts 41°
2026-04-24 15:07 55.60984 12.62703 17 ft 14 kts 41°
2026-04-24 15:08 55.61053 12.62811 17 ft 12 kts 41°
2026-04-24 15:08 55.61110 12.62900 18 ft 10 kts 41°
2026-04-24 15:08 55.61164 12.62982 20 ft 11 kts 41°
2026-04-24 15:08 55.61230 12.63085 18 ft 14 kts 40°
2026-04-24 15:09 55.61311 12.63209 17 ft 16 kts 41°
2026-04-24 15:09 55.61389 12.63330 19 ft 14 kts 41°
2026-04-24 15:09 55.61455 12.63431 19 ft 12 kts 40°
2026-04-24 15:09 55.61526 12.63540 19 ft 15 kts 41°
2026-04-24 15:10 55.61615 12.63680 18 ft 19 kts 41°
2026-04-24 15:10 55.61710 12.63826 18 ft 17 kts 41°
2026-04-24 15:10 55.61790 12.63951 19 ft 14 kts 41°
2026-04-24 15:10 55.61850 12.64043 17 ft 10 kts 39°
2026-04-24 15:11 55.61915 12.64109 17 ft 12 kts 25°
2026-04-24 15:11 55.62001 12.64179 17 ft 14 kts 25°
2026-04-24 15:11 55.62081 12.64248 17 ft 12 kts 25°
2026-04-24 15:11 55.62148 12.64304 17 ft 10 kts 26°
2026-04-24 15:12 55.62226 12.64373 16 ft 15 kts 31°
2026-04-24 15:12 55.62304 12.64631 18 ft 10 kts 66°
2026-04-24 15:12 55.62330 12.64737 19 ft 8 kts 65°
2026-04-24 15:13 55.62371 12.64779 17 ft 8 kts
2026-04-24 15:13 55.62432 12.64779 17 ft 10 kts 358°
2026-04-24 15:13 55.62504 12.64773 17 ft 10 kts 358°
2026-04-24 15:13 55.62574 12.64771 17 ft 8 kts 359°
2026-04-24 15:14 55.62602 12.64785 18 ft 4 kts 47°
2026-04-24 15:14 55.62605 12.64844 17 ft 4 kts 90°
2026-04-24 15:14 55.62605 12.64876 17 ft 2 kts 90°
2026-04-24 15:14 55.62605 12.64890 17 ft 1 kts 91°
2026-04-24 15:15 55.62605 12.64893 17 ft 0 kts 91°
2026-04-24 15:17 55.62605 12.64892 17 ft 0 kts 91°